Regional Weather Roundup
Issued by NWS

Home | Current Version | Previous Version | Text Only | Print | Product List | Glossary On
Versions: 1 2 3 4 5 6 7 8 9 10 11 12 13 14 15 16 17 18 19 20 21 22 23 24 25 26 27 28 29 30 31 32 33 34 35 36 37 38 39 40 41 42 43 44 45 46 47 48 49 50
000
ASUS43 KTOP 222008
RWRKS

WEATHER ROUNDUP FOR KANSAS
NATIONAL WEATHER SERVICE GOODLAND KS
300 PM CDT SAT JUL 22 2017

NOTE:  "FAIR" INDICATES FEW OR NO CLOUDS BELOW 12,000 FEET WITH NO
SIGNIFICANT WEATHER AND/OR OBSTRUCTIONS TO VISIBILITY.

KSZ001>006-013>018-027>032-041>047-222100-
NORTHWEST KANSAS

CITY           SKY/WX    TMP DP  RH WIND       PRES   REMARKS
GOODLAND       CLOUDY    82  57  42 N18       30.09R
HAYS           SUNNY    102  61  25 VRB7G16   29.87F HX 103
HILL CITY      MOSUNNY  100  66  32 NE10      29.92S HX 104
RUSSELL        SUNNY    103  58  22 S9        29.84F HX 102
$$

KSZ061>065-074>080-084>089-222100-
SOUTHWEST KANSAS

CITY           SKY/WX    TMP DP  RH WIND       PRES   REMARKS
DODGE CITY     SUNNY    101  51  18 S9G18     29.92F HX  98
ELKHART          N/A     94  53  25 E8          N/A
GARDEN CITY    SUNNY     96  57  27 CALM      29.95F HX  95
LIBERAL        SUNNY     97  58  27 E5        29.95F HX  96
PRATT          MOSUNNY  101  56  22 SW9G22    29.87F HX 100
$$

KSZ066>073-081>083-090>101-222100-
SOUTHEAST KANSAS

CITY           SKY/WX    TMP DP  RH WIND       PRES   REMARKS
CHANUTE        SUNNY    102  70  35 S14G25    29.84F HX 110
COFFEYVILLE    SUNNY     99  75  46 S13G21    29.84F HX 112
HUTCHINSON     SUNNY    106  55  18 W12       29.83F HX 105
MEDICINE LODGE   N/A    104  57  21 SW8       29.84F HX 103
NEWTON         MOSUNNY  106  61  23 S10G17    29.85F HX 107
PARSONS        SUNNY     99  73  43 S10       29.86F HX 109
WICHITA INTL   MOSUNNY  104  62  25 VRB3      29.83F HX 106
WICHITA JABRA  SUNNY    104  63  26 S6        29.84F HX 106
WICHITA MCCONL SUNNY    104  61  25 SW12G20   29.84F HX 105
WINFIELD       MOSUNNY  105  65  27 SW12      29.86F HX 109
$$

KSZ007>012-019>026-033>040-048>060-102>105-222100-
NORTHEAST KANSAS

CITY           SKY/WX    TMP DP  RH WIND       PRES   REMARKS
CONCORDIA      SUNNY     99  73  43 NE8       29.85F HX 109
EMPORIA        SUNNY    101  72  39 S12       29.83F HX 110
LAWRENCE       SUNNY    100  73  41 S9        29.81S HX 110
MANHATTAN      SUNNY    103  67  31 CALM      29.81S HX 108
MARYSVILLE     MOSUNNY   95  81  63 N12       29.84F HX 115
OLATHE IND     SUNNY     97  72  44 S14       29.82F HX 105
OLATHE EXE     SUNNY     94  75  54 SW10      29.83F HX 105
SALINA         SUNNY    109  58  18 SW7       29.81F HX 109
TOPEKA BILLARD SUNNY    100  73  41 SW6       29.80S HX 110
TOPEKA FORBES  SUNNY    100  74  43 S9        29.82S HX 112
$$



USA.gov is the U.S. government's official web portal to all federal, state and local government web resources and services.